Location: Santiago
(33.4378°S, 70.6505°W)
Time: 19:57:06
(UTC+00:00)

ISS - Pass Details

Date: 13 February 2024
Orbit: 414 x 422 km, 51.6° (Epoch: 27 February)

Event Time Altitude Azimuth Distance (km) Brightness Sun altitude
Rises 01:04:40 0° 269° (W) 2,367 1.1 -17.5°
Reaches altitude 10° 01:07:38 10° 241° (WSW) 1,508 0.4 -18.0°
Maximum altitude 01:09:23 13° 210° (SSW) 1,318 -0.4 -18.3°
Drops below altitude 10° 01:11:09 10° 178° (S) 1,514 -0.6 -18.6°
Enters shadow 01:15:49 -5° 142° (SE) 2,989 0.5 -19.5°
